[[{"header":{"parameterUnit":"m.s-1","parameterCategory":1,"la1":30.2991,"la2":30.254,"lo1":-89.0895,"lo2":-89.0444,"dx":0.0017,"dy":0.0017,"nx":28,"ny":28,"refTime":"2023-01-27T15:00:00:Z","depth":0,"parameterNumber":2,"parameterNumberName":"U-component_of_WINDS"},"data":[0,0,0,0,0,0,0,0,0,0,0,0,0,0,0,0,0,0,0,0,0,0,0,0,0,0,0,0,0,0,0,0,0,0,0,0,0,0,0,0,0,0,0,0,0,0,0,0,0,0,0,0,0,0,0,0,0,0,-5.4863,-5.4864,0,-5.4983,-5.4984,-5.4986,-5.4975,-5.4973,-5.4972,-5.497,-5.509,-5.5094,-5.5099,0,0,0,0,0,0,0,0,0,0,0,0,0,-5.4623,-5.4628,-5.4863,-5.4864,-5.4866,-5.4983,-5.4984,-5.4986,-5.4976,-5.4973,-5.4971,-5.4969,-5.5088,-5.5094,-5.51,0,0,0,0,0,0,0,0,0,0,0,0,0,-5.4734,-5.4629,-5.4863,-5.4875,-5.4877,-5.4982,-5.4984,-5.4986,-5.4976,-5.4973,-5.4971,-5.4968,-5.5086,-5.5093,-5.51,-5.52,0,0,-5.5123,-5.5126,0,0,0,0,0,0,0,0,-5.4727,-5.4742,-5.4872,-5.4874,-5.4877,-5.4961,-5.4944,-5.5058,-5.4977,-5.4938,-5.497,-5.4967,-5.5049,-5.5059,-5.5087,-5.5206,-5.5211,-5.5123,-5.5128,-5.5131,-5.5133,0,0,0,0,0,0,0,-5.472,-5.4737,-5.491,-5.4874,-5.4877,-5.4874,-5.4887,-5.4965,-5.5007,-5.4942,-5.4941,-5.4956,-5.505,-5.508,-5.509,-5.5212,-5.5123,-5.513,-5.5134,-5.5137,-5.5418,-5.5421,0,0,0,0,0,0,-5.471,-5.4731,-5.4906,-5.4914,-5.4794,-5.488,-5.4895,-5.4937,-5.5007,-5.5015,-5.4958,-5.4955,-5.5069,-5.5082,-5.5094,-5.5214,-5.5131,-5.5138,-5.5142,-5.5415,-5.5419,-5.5422,0,0,0,0,0,0,-5.4705,-5.4725,-5.4902,-5.4822,-5.4845,-5.4887,-5.4935,-5.4941,-5.4971,-5.5019,-5.5026,-5.4981,-5.5068,-5.5084,-5.5174,-5.5218,-5.5141,-5.5148,-5.5412,-5.5416,-5.5421,-5.5456,0,0,0,0,0,0,-5.4698,-5.4724,-5.4762,-5.4823,-5.4849,-5.498,-5.4938,-5.4945,-5.4984,-5.4981,-5.5043,-5.505,-5.5067,-5.5163,-5.5181,-5.5227,-5.5153,-5.5408,-5.5414,-5.5419,-5.5451,-5.5461,-5.547,0,0,0,0,0,-5.4689,-5.4767,-5.4764,-5.4785,-5.4898,-5.4982,-5.4997,-5.5015,-5.4988,-5.5027,-5.5058,-5.5048,-5.5212,-5.5172,-5.5193,-5.5241,-5.5405,-5.5412,-5.5419,-5.5447,-5.5459,-5.547,0,0,0,0,0,0,-5.4708,-5.4775,-5.4773,-5.4872,-5.4922,-5.498,-5.5029,-5.5028,-5.5085,-5.5079,-5.5099,-5.5113,-5.5203,-5.5232,-5.5187,-5.5342,-5.5305,-5.5316,-5.5319,-5.5331,-5.5341,-5.533,-5.5159,0,0,0,0,0,-5.4724,-5.4787,-5.4842,-5.4925,-5.495,-5.4986,-5.5023,-5.5033,-5.5085,-5.5105,-5.5143,-5.5192,-5.5255,-5.5295,-5.5355,-5.5457,-5.5469,-5.5501,-5.551,-5.5518,-5.5526,-5.5581,-5.5595,-5.5445,-5.5445,-5.5445,0,0,-5.4756,-5.4801,-5.484,-5.493,-5.4969,-5.5034,-5.5003,-5.5073,-5.512,-5.5116,-5.5202,-5.5232,-5.5289,-5.5385,-5.5429,-5.5411,-5.5571,-5.5527,-5.5532,-5.5536,-5.559,-5.5604,-5.5616,-5.545,-5.5449,-5.5448,0,0,-5.4849,-5.489,-5.4963,-5.5004,-5.5065,-5.5088,-5.5106,-5.5166,-5.5186,-5.5274,-5.5271,-5.5329,-5.5436,-5.5477,-5.5511,-5.5622,-5.5615,-5.5642,-5.569,-5.5743,-5.5755,-5.5765,-5.5803,-5.5816,-5.5651,-5.5651,-5.5651,0,-5.4881,-5.4979,-5.5,-5.5071,-5.511,-5.5111,-5.5184,-5.5223,-5.53,-5.5327,-5.5307,-5.5443,-5.5481,-5.5586,-5.5613,-5.5642,-5.5662,-5.5632,-5.5752,-5.5763,-5.5773,-5.5809,-5.5823,-5.5653,-5.5653,-5.5653,-5.5652,0,-5.5015,-5.5083,-5.5135,-5.5211,-5.5256,-5.5328,-5.536,-5.5403,-5.5411,-5.5436,-5.5526,-5.5573,-5.5642,-5.5669,-5.5676,-5.5776,-5.5763,-5.5748,-5.571,-5.5789,-5.5823,-5.5837,-5.5657,-5.5656,-5.5655,-5.5655,0,0,-5.5118,-5.5207,-5.5225,-5.526,-5.5328,-5.5381,-5.5454,-5.5523,-5.5559,-5.5614,-5.5673,-5.5766,-5.5753,-5.5792,-5.5804,-5.5852,-5.5935,-5.5831,-5.5832,-5.5846,-5.6045,-5.6054,-5.6069,-5.5933,-5.5935,-5.5938,-5.604,0,-5.5215,-5.5343,-5.5366,-5.5477,-5.554,-5.5543,-5.5606,-5.5655,-5.5682,-5.5739,-5.5768,-5.5833,-5.5811,-5.5835,-5.5883,-5.5914,-5.5974,-5.5908,-5.5986,-5.5989,-5.5968,-5.6088,-5.6097,-5.619,-5.6053,-5.6056,-5.6057,0,-5.5344,-5.5403,-5.5521,-5.5582,-5.5609,-5.5665,-5.5731,-5.5786,-5.5842,-5.5858,-5.5904,-5.5911,-5.5986,-5.5948,-5.6051,-5.6005,-5.6039,-5.606,-5.6064,-5.6069,-5.6025,-5.6093,-5.6221,-5.6234,-5.6079,-5.6077,-5.6076,0,-5.5405,-5.5514,-5.5598,-5.5628,-5.5702,-5.5741,-5.5774,-5.5827,-5.5868,-5.5926,-5.5952,-5.6018,-5.6053,-5.6103,-5.6128,-5.6099,-5.6228,-5.6193,-5.6242,-5.6242,-5.6266,-5.6263,-5.6398,-5.6294,-5.6294,-5.6293,-5.6293,0,-5.5508,-5.558,-5.5626,-5.5678,-5.5758,-5.5784,-5.5863,-5.5895,-5.5942,-5.6,-5.6008,-5.6062,-5.6093,-5.6151,-5.6172,-5.6252,-5.6269,-5.6283,-5.6287,-5.628,-5.6278,-5.63,-5.6293,-5.6297,-5.6296,-5.6296,-5.6295,0,-5.5587,-5.5622,-5.5714,-5.5777,-5.5795,-5.5851,-5.5905,-5.5955,-5.5984,-5.6056,-5.6075,-5.6119,-5.6188,-5.6219,-5.6304,-5.6318,-5.6409,-5.641,-5.639,-5.6391,-5.6437,-5.6432,-5.6588,-5.6609,-5.6494,-5.6495,-5.6496,0,-5.5649,-5.5704,-5.5775,-5.5814,-5.5848,-5.5912,-5.5954,-5.5983,-5.6026,-5.6095,-5.6137,-5.6207,-5.6263,-5.6374,-5.6413,-5.6478,-5.6479,-5.6529,-5.6488,-5.648,-5.6476,-5.6471,-5.6476,-5.6535,-5.6536,-5.6537,-5.6538,0,-5.5755,-5.577,-5.5831,-5.5898,-5.5948,-5.6002,-5.6055,-5.6087,-5.6124,-5.6172,-5.6244,-5.6288,-5.6376,-5.6445,-5.6513,-5.6546,-5.6548,-5.6552,-5.6566,-5.6558,-5.6543,-5.6549,-5.6407,-5.6547,-5.6546,-5.6545,-5.6545,-5.6544,-5.5826,-5.5875,-5.5932,-5.6,-5.6043,-5.6093,-5.6143,-5.6179,-5.6239,-5.6313,-5.6327,-5.6403,-5.6458,-5.6551,-5.6587,-5.6646,-5.6633,-5.6655,-5.6659,-5.6663,-5.6665,-5.6537,-5.6659,-5.6659,-5.6658,-5.6658,-5.6658,0,-5.593,-5.5968,-5.603,-5.6104,-5.6157,-5.6158,-5.6217,-5.626,-5.6327,-5.638,-5.6436,-5.6519,-5.6586,-5.6632,-5.67,-5.6738,-5.6741,-5.6755,-5.6751,-5.6758,-5.6673,-5.6653,-5.6752,-5.6752,-5.6752,-5.6752,-5.6752,-5.6752,-5.599,-5.6072,-5.6095,-5.6199,-5.6237,-5.6311,-5.6345,-5.6391,-5.6433,-5.6524,-5.6581,-5.6611,-5.6661,-5.6733,-5.6795,-5.6807,-5.683,-5.6844,-5.6855,-5.6774,-5.6764,-5.6754,-5.6735,-5.685,-5.685,-5.6934,-5.6935,-5.6936]},{"header":{"parameterUnit":"m.s-1","parameterCategory":1,"la1":30.2991,"la2":30.254,"lo1":-89.0895,"lo2":-89.0444,"dx":0.0017,"dy":0.0017,"nx":28,"ny":28,"refTime":"2023-01-27T15:00:00:Z","depth":0,"parameterNumber":3,"parameterNumberName":"V-component_of_WINDS"},"data":[0,0,0,0,0,0,0,0,0,0,0,0,0,0,0,0,0,0,0,0,0,0,0,0,0,0,0,0,0,0,0,0,0,0,0,0,0,0,0,0,0,0,0,0,0,0,0,0,0,0,0,0,0,0,0,0,0,0,3.0996,3.0997,0,3.1106,3.1108,3.1109,3.1127,3.1126,3.1125,3.1124,3.1235,3.1239,3.1243,0,0,0,0,0,0,0,0,0,0,0,0,0,3.0802,3.0806,3.0996,3.0998,3.0999,3.1106,3.1108,3.1109,3.1127,3.1126,3.1125,3.1124,3.1234,3.1239,3.1243,0,0,0,0,0,0,0,0,0,0,0,0,0,3.0897,3.0807,3.0996,3.1021,3.1024,3.1106,3.1108,3.111,3.1128,3.1126,3.1125,3.1123,3.1233,3.1238,3.1244,3.1308,0,0,3.1262,3.1264,0,0,0,0,0,0,0,0,3.0891,3.0904,3.1016,3.1019,3.1023,3.1102,3.108,3.1176,3.1128,3.1088,3.1124,3.1123,3.1192,3.1201,3.1225,3.1313,3.1318,3.1262,3.1266,3.1268,3.127,0,0,0,0,0,0,0,3.0885,3.0899,3.104,3.1018,3.1022,3.1027,3.1039,3.1098,3.1147,3.1092,3.1093,3.1106,3.1194,3.1219,3.1227,3.1319,3.1262,3.1267,3.1271,3.1273,3.1469,3.1471,0,0,0,0,0,0,3.0874,3.0894,3.1036,3.1043,3.0953,3.1032,3.1045,3.1078,3.1146,3.1155,3.1107,3.1107,3.121,3.1221,3.1231,3.1313,3.1268,3.1273,3.1277,3.1468,3.147,3.1472,0,0,0,0,0,0,3.087,3.0886,3.1032,3.0969,3.0988,3.1036,3.1073,3.1081,3.1106,3.1158,3.1167,3.1124,3.1209,3.1223,3.129,3.1317,3.1276,3.1281,3.1466,3.1468,3.1471,3.1475,0,0,0,0,0,0,3.0864,3.0885,3.0909,3.0969,3.0991,3.1088,3.1075,3.1084,3.1116,3.1117,3.1176,3.1185,3.1209,3.1281,3.1295,3.1324,3.1286,3.1463,3.1467,3.147,3.1473,3.1478,3.1482,0,0,0,0,0,3.0857,3.0905,3.091,3.0927,3.1023,3.1089,3.1102,3.113,3.1118,3.1144,3.1178,3.1183,3.1312,3.1288,3.1304,3.1335,3.1462,3.1466,3.147,3.1471,3.1477,3.1482,0,0,0,0,0,0,3.0845,3.0913,3.092,3.0988,3.1033,3.1092,3.1125,3.1135,3.1183,3.1181,3.1213,3.1226,3.1291,3.132,3.1292,3.1402,3.1386,3.1393,3.1381,3.1387,3.1392,3.1384,3.129,0,0,0,0,0,3.0851,3.0899,3.0956,3.1011,3.1034,3.1076,3.1106,3.1124,3.1171,3.119,3.1228,3.1273,3.1325,3.1357,3.1407,3.1477,3.1492,3.1507,3.1511,3.1515,3.1521,3.1563,3.1571,3.1485,3.1485,3.1485,0,0,3.0862,3.0905,3.0934,3.101,3.1047,3.1097,3.1091,3.1144,3.1182,3.1197,3.1263,3.1293,3.1346,3.1416,3.1448,3.1441,3.1548,3.152,3.1522,3.1527,3.1568,3.1576,3.1583,3.1487,3.1487,3.1487,0,0,3.0909,3.0946,3.0998,3.1036,3.1092,3.112,3.1133,3.1191,3.1212,3.1279,3.1293,3.1338,3.1425,3.1463,3.1494,3.156,3.1567,3.1575,3.1598,3.1639,3.1646,3.1652,3.1678,3.1686,3.1581,3.1581,3.1581,0,3.0917,3.0993,3.1023,3.1077,3.1111,3.1129,3.1182,3.1217,3.1286,3.1309,3.1301,3.1413,3.1449,3.1529,3.1546,3.1569,3.1586,3.1568,3.1643,3.1649,3.1655,3.168,3.1689,3.1581,3.1581,3.1581,3.1581,0,3.1,3.1054,3.1088,3.1157,3.1195,3.1248,3.1286,3.1321,3.1337,3.1366,3.1435,3.1481,3.1541,3.1561,3.1576,3.1644,3.1639,3.1636,3.162,3.1664,3.1688,3.1697,3.1582,3.1582,3.1582,3.1582,0,0,3.1042,3.1128,3.1141,3.1174,3.1239,3.128,3.1335,3.1396,3.1426,3.1474,3.1521,3.1596,3.1595,3.163,3.1649,3.1685,3.1737,3.1678,3.168,3.1689,3.1818,3.1821,3.1831,3.1742,3.1744,3.1746,3.1814,0,3.1098,3.1197,3.1227,3.131,3.136,3.138,3.1428,3.1473,3.1503,3.155,3.1583,3.1636,3.163,3.1651,3.1687,3.1723,3.1764,3.1718,3.1788,3.179,3.1775,3.1843,3.1845,3.1908,3.1824,3.1825,3.1826,0,3.1176,3.1228,3.1316,3.1378,3.1401,3.1443,3.1503,3.1548,3.16,3.162,3.166,3.1678,3.1737,3.1718,3.1801,3.1769,3.18,3.1822,3.1825,3.1833,3.1811,3.1854,3.1928,3.1938,3.1841,3.184,3.1839,0,3.12,3.1291,3.1357,3.1384,3.1457,3.1487,3.1519,3.157,3.1606,3.1658,3.1682,3.1739,3.1771,3.1816,3.1848,3.1831,3.1929,3.1912,3.1948,3.1947,3.1968,3.1966,3.2049,3.1985,3.1985,3.1985,3.1985,0,3.1261,3.1314,3.1369,3.141,3.1471,3.1506,3.1566,3.1599,3.1645,3.1693,3.1712,3.1757,3.1797,3.1847,3.1873,3.1939,3.1953,3.1971,3.1977,3.197,3.1968,3.1991,3.1988,3.1988,3.1987,3.1987,3.1986,0,3.1298,3.1336,3.141,3.1474,3.1491,3.1534,3.1589,3.163,3.1661,3.1721,3.1737,3.1786,3.1847,3.1884,3.196,3.1977,3.2051,3.2055,3.2033,3.2037,3.2071,3.2068,3.2172,3.2188,3.2112,3.2113,3.2113,0,3.1334,3.1376,3.1446,3.148,3.1513,3.1566,3.1604,3.164,3.1678,3.1743,3.1776,3.1838,3.189,3.1986,3.2028,3.2087,3.2094,3.2126,3.2103,3.2095,3.2097,3.2094,3.21,3.213,3.2131,3.2131,3.2132,0,3.1396,3.1414,3.1466,3.1527,3.1572,3.1621,3.167,3.1696,3.1741,3.1783,3.1846,3.1886,3.1965,3.2027,3.2091,3.2123,3.2136,3.2139,3.2151,3.2144,3.2131,3.2141,3.2046,3.2136,3.2136,3.2136,3.2135,3.2135,3.1435,3.1475,3.1531,3.159,3.1631,3.1677,3.172,3.1757,3.181,3.1878,3.1896,3.1963,3.2017,3.2104,3.2139,3.2192,3.2187,3.2203,3.2208,3.2212,3.2214,3.2122,3.2203,3.2203,3.2203,3.2203,3.2203,0,3.1499,3.1537,3.1591,3.1661,3.1708,3.1716,3.1772,3.1811,3.1869,3.1919,3.197,3.2044,3.2105,3.2153,3.2216,3.2249,3.2257,3.2265,3.2263,3.2271,3.2213,3.2197,3.2258,3.2258,3.2258,3.2258,3.2258,3.2258,3.1538,3.1607,3.1632,3.1722,3.1759,3.1825,3.1857,3.19,3.1941,3.2022,3.2074,3.2105,3.2155,3.2222,3.2279,3.2292,3.2315,3.2322,3.2336,3.2281,3.2275,3.2269,3.2255,3.2327,3.2327,3.2391,3.2391,3.2392]}]]